Adelaide, South Australia

9:06 AM ACDT on February 09, 2016 (GMT +1030)
Adelaide International

Weather History for YPAD - October, 2013

Change the Weather History Date:

Friday, October 4, 2013

  Actual Average Record
Temperature  
Mean Temperature 58 °F -  
Max Temperature 75 °F 71 °F 91 °F (2006)
Min Temperature 41 °F 51 °F 41 °F (2013)
Degree Days  
Heating Degree Days 7    
Growing Degree Days 8 (Base 50)    
Moisture  
Dew Point 40 °F    
Average Humidity 53    
Maximum Humidity 93    
Minimum Humidity 9    
Precipitation  
Precipitation 0.00 in 0.05 in - ()
Sea Level Pressure  
Sea Level Pressure 30.10 in    
Wind  
Wind Speed 8 mph ()    
Max Wind Speed 20 mph    
Max Gust Speed -    
Visibility 19.0 miles    
Events      
Averages and records for this station are not official NWS values.
T = Trace of Precipitation, MM = Missing Value Source: Averaged Metar Reports

Daily Weather History Graph

Daily Weather History Graph

Search for Another Location

Airport or City:

Trip Planner

Search our weather history database for the weather conditions in past years. The results will help you decide how hot, cold, wet, or windy it might be!

Date:

Astronomy

Oct. 04, 2013 Rise Set
Actual Time 5:48 AM ACST 6:21 PM ACST
Civil Twilight 5:23 AM ACST 6:46 PM ACST
Nautical Twilight 4:53 AM ACST 7:16 PM ACST
Astronomical Twilight 4:23 AM ACST 7:47 PM ACST
Moon 5:01 AM ACST (10/4) 5:38 PM ACST (10/4)
Length of Visible Light 13h 23m
Length of Day
12h 32m
Waning Crescent, 1% of the Moon is Illuminated
Oct 4
Waning Crescent
Oct 5
New
Oct 12
First Quarter
Oct 19
Full
Oct 27
Last Quarter

Hourly Weather History & Observations

Time (ACST) Temp. Windchill Dew Point Humidity Pressure Visibility Wind Dir Wind Speed Gust Speed Precip Events Conditions
12:00 AM 47 °F - 43 °F 79% 30.28 in 19 mi East 2.3 mph - -   Partly Cloudy
12:00 AM 48.2 °F - 42.8 °F 82% 30.27 in - East 2.3 mph - N/A   Clear
12:30 AM 46 °F - 42 °F 79% 30.28 in - ENE 3.5 mph - -  
12:30 AM 46.4 °F 45.2 °F 41.0 °F 81% 30.27 in - ENE 3.5 mph - N/A   Clear
1:00 AM 44.6 °F 42.2 °F 41.0 °F 87% 30.24 in - NE 4.6 mph - N/A   Clear
1:30 AM 44.6 °F 41.4 °F 41.0 °F 87% 30.24 in - NE 5.8 mph - N/A   Clear
2:00 AM 44.6 °F 42.2 °F 41.0 °F 87% 30.21 in - NE 4.6 mph - N/A   Clear
2:30 AM 42.8 °F 40.1 °F 41.0 °F 93% 30.21 in - ENE 4.6 mph - N/A   Clear
3:00 AM 45 °F - 41 °F 82% 30.22 in 19 mi NE 4.6 mph - -   Partly Cloudy
3:00 AM 44.6 °F 42.2 °F 41.0 °F 87% 30.21 in - NE 4.6 mph - N/A   Clear
3:30 AM 43 °F - 40 °F 87% 30.21 in - NE 4.6 mph - -  
3:30 AM 42.8 °F 40.1 °F 41.0 °F 93% 30.18 in - NE 4.6 mph - N/A   Clear
4:00 AM 42.8 °F 39.3 °F 41.0 °F 93% 30.18 in - NE 5.8 mph - N/A   Clear
4:30 AM 42.8 °F 38.6 °F 39.2 °F 87% 30.18 in - NE 6.9 mph - N/A   Clear
5:00 AM 42.8 °F 39.3 °F 39.2 °F 87% 30.18 in - NE 5.8 mph - N/A   Clear
5:30 AM 42.8 °F 38.0 °F 39.2 °F 87% 30.18 in - NE 8.1 mph - N/A   Clear
6:00 AM 43 °F - 39 °F 82% 30.18 in 19 mi NE 9.2 mph - -   Partly Cloudy
6:00 AM 42.8 °F 37.5 °F 39.2 °F 87% 30.18 in - NE 9.2 mph - N/A   Clear
6:30 AM 47 °F - 42 °F 77% 30.19 in - NE 9.2 mph - -  
6:30 AM 46.4 °F 41.9 °F 42.8 °F 87% 30.18 in - NE 9.2 mph - N/A   Clear
7:00 AM 51.8 °F - 44.6 °F 76% 30.18 in - NE 10.4 mph - N/A   Clear
7:30 AM 55.4 °F - 46.4 °F 72% 30.18 in - NE 10.4 mph - N/A   Clear
8:00 AM 57.2 °F - 44.6 °F 63% 30.18 in - NNE 12.7 mph - N/A   Clear
8:30 AM 60.8 °F - 42.8 °F 52% 30.18 in - North 13.8 mph - N/A   Clear
9:00 AM 63 °F - 44 °F 38% 30.18 in 19 mi North 15.0 mph - -   Partly Cloudy
9:00 AM 62.6 °F - 44.6 °F 52% 30.15 in - North 15.0 mph - N/A   Clear
9:30 AM 64 °F - 43 °F 34% 30.17 in - North 15.0 mph - -  
9:30 AM 64.4 °F - 42.8 °F 45% 30.15 in - North 15.0 mph - N/A   Clear
10:00 AM 66.2 °F - 44.6 °F 46% 30.15 in - North 13.8 mph - N/A   Clear
10:30 AM 68.0 °F - 42.8 °F 40% 30.15 in - North 16.1 mph - N/A   Clear
11:00 AM 68.0 °F - 41.0 °F 37% 30.12 in - North 13.8 mph - N/A   Clear
11:30 AM 69.8 °F - 41.0 °F 35% 30.12 in - NNW 16.1 mph - N/A   Clear
12:00 PM 69 °F - 41 °F 25% 30.11 in 19 mi NW 17.3 mph - -   Partly Cloudy
12:00 PM 68.0 °F - 41.0 °F 37% 30.09 in - NW 17.3 mph - N/A   Clear
12:30 PM 71 °F - 43 °F 25% 30.10 in - NNW 15.0 mph - -  
12:30 PM 71.6 °F - 42.8 °F 35% 30.09 in - NNW 15.0 mph - N/A   Clear
1:00 PM 69.8 °F - 39.2 °F 33% 30.06 in - NNW 18.4 mph - N/A   Clear
2:00 PM 73.4 °F - 39.2 °F 29% 30.04 in - NW 18.4 mph - N/A   Clear
2:30 PM 71.6 °F - 37.4 °F 29% 30.01 in - NW 19.6 mph - N/A   Clear
3:00 PM 73.4 °F - 33.8 °F 23% 30.01 in - NNW 17.3 mph - N/A   Clear
3:30 PM 74 °F - 27 °F 9% 30.01 in - NNW 17.3 mph - -  
3:30 PM 75.2 °F - 26.6 °F 17% 30.01 in - NNW 17.3 mph - N/A   Clear
4:00 PM 75.2 °F - 30.2 °F 19% 29.98 in - NNW 15.0 mph - N/A   Clear
4:30 PM 75.2 °F - 32.0 °F 21% 29.98 in - NNW 15.0 mph - N/A   Clear
5:00 PM 73.4 °F - 33.8 °F 23% 29.98 in - NNW 12.7 mph - N/A   Clear
5:30 PM 73.4 °F - 33.8 °F 23% 29.98 in - NNW 10.4 mph - N/A   Clear
6:00 PM 71 °F - 39 °F 20% 29.98 in 19 mi North 6.9 mph - -   Partly Cloudy
6:00 PM 71.6 °F - 39.2 °F 31% 29.98 in - North 6.9 mph - N/A   Clear
6:30 PM 67 °F - 44 °F 31% 29.98 in - North 5.8 mph - -  
6:30 PM 66.2 °F - 44.6 °F 46% 29.98 in - North 5.8 mph - N/A   Clear
7:00 PM 66.2 °F - 41.0 °F 40% 29.98 in - NNE 6.9 mph - N/A   Clear
7:30 PM 62.6 °F - 41.0 °F 45% 29.98 in - NE 8.1 mph - N/A   Clear
8:00 PM 60.8 °F - 42.8 °F 52% 29.98 in - NE 8.1 mph - N/A   Clear
8:30 PM 59.0 °F - 42.8 °F 55% 29.98 in - NE 10.4 mph - N/A   Clear
9:00 PM 60 °F - 42 °F 39% 29.97 in 19 mi NE 10.4 mph - -   Partly Cloudy
9:00 PM 60.8 °F - 41.0 °F 48% 29.95 in - NE 10.4 mph - N/A   Clear
9:30 PM 60 °F - 42 °F 39% 29.96 in - NE 11.5 mph - -  
9:30 PM 60.8 °F - 41.0 °F 48% 29.95 in - NE 11.5 mph - N/A   Clear
10:00 PM 64.4 °F - 39.2 °F 40% 29.95 in - NE 13.8 mph - N/A   Clear
10:30 PM 66.2 °F - 37.4 °F 35% 29.92 in - NNE 12.7 mph - N/A   Clear
11:00 PM 66.2 °F - 37.4 °F 35% 29.92 in - North 16.1 mph - N/A   Clear
11:30 PM 64.4 °F - 37.4 °F 37% 29.92 in - North 17.3 mph - N/A   Clear